Location: Conflandey
(47.7287°N, 6.0456°E)
Time: 03:47:02
(UTC+00:00)

Cosmos 1000 Rocket - Pass Details

Date: 24 October 2021
Orbit: 954 x 991 km, 82.9° (Epoch: 28 November)

Event Time Altitude Azimuth Distance (km) Brightness Sun altitude
Rises 16:53:04 0° 352° (N) 3,652 7.4 -4.4°
Reaches altitude 10° 16:55:35 10° 356° (N) 2,705 6.8 -4.8°
Maximum altitude 17:01:45 67° 79° (ENE) 1,048 4.5 -5.8°
Drops below altitude 10° 17:07:55 10° 161° (SSE) 2,711 6.8 -6.9°
Sets 17:10:27 0° 164° (SSE) 3,659 7.4 -7.3°
